• în Republica Moldova
  • Lista ţărilor
  • Pe 7 zile
  • Temperatura apei
  • Hartă satelitară
  • Meteo pe hartă
  • Widget-uri
  • user-avatar
    Intrare

    Meteo pe oră la Ischgl

    Astăzi, 26 Aprilie, Joi

    Timp Temperatura Precipitaţii Vânt Presiune Umiditate
    00:00 +4°C° 0,4 mm 1 m/s 574 mmHg 97%
    01:00 +4°C° 0 mm 1 m/s 574 mmHg 98%
    02:00 +4°C° 0,4 mm 1 m/s 573 mmHg 98%
    03:00 +3°C° 0,4 mm 1 m/s 573 mmHg 98%
    04:00 +3°C° 0,4 mm 1 m/s 573 mmHg 98%
    05:00 +2°C° 0,4 mm 2 m/s 573 mmHg 98%
    06:00 +2°C° 0,4 mm 2 m/s 573 mmHg 97%
    07:00 +2°C° 0 mm 2 m/s 573 mmHg 97%
    08:00 +2°C° 0,3 mm 2 m/s 573 mmHg 95%
    09:00 +2°C° 0,3 mm 2 m/s 574 mmHg 94%
    10:00 +2°C° 0,3 mm 2 m/s 574 mmHg 92%
    11:00 +3°C° 0,2 mm 2 m/s 574 mmHg 89%
    12:00 +3°C° 0,2 mm 2 m/s 574 mmHg 87%
    13:00 +3°C° 0 mm 2 m/s 574 mmHg 85%
    14:00 +3°C° 0,1 mm 2 m/s 574 mmHg 83%
    15:00 +3°C° 0,1 mm 2 m/s 574 mmHg 81%
    16:00 +3°C° 0,1 mm 2 m/s 574 mmHg 79%
    17:00 +2°C° 0,1 mm 2 m/s 573 mmHg 82%
    18:00 +1°C° 0,1 mm 2 m/s 573 mmHg 85%
    19:00 -1°C° 0,1 mm 2 m/s 573 mmHg 88%
    20:00 +1°C° 0 mm 1 m/s 573 mmHg 90%
    21:00 0°C° 0 mm 1 m/s 572 mmHg 92%
    22:00 -1°C° 0 mm 1 m/s 572 mmHg 94%
    23:00 -1°C° 0 mm 1 m/s 572 mmHg 92%

    Mâine, 27 Aprilie, Vineri

    Timp Temperatura Precipitaţii Vânt Presiune Umiditate
    00:00 -1°C° 0 mm 1 m/s 572 mmHg 91%
    01:00 -1°C° 0 mm 1 m/s 572 mmHg 90%
    02:00 -1°C° 0 mm 1 m/s 572 mmHg 89%
    03:00 -3°C° 0 mm 2 m/s 572 mmHg 89%
    04:00 -3°C° 0 mm 2 m/s 572 mmHg 89%
    05:00 -1°C° 0 mm 2 m/s 572 mmHg 87%
    06:00 +1°C° 0 mm 2 m/s 572 mmHg 85%
    07:00 +2°C° 0 mm 2 m/s 573 mmHg 83%
    08:00 +3°C° 0 mm 3 m/s 573 mmHg 77%
    09:00 +5°C° 0 mm 3 m/s 574 mmHg 72%
    10:00 +7°C° 0 mm 3 m/s 575 mmHg 67%
    11:00 +8°C° 0 mm 3 m/s 575 mmHg 65%
    12:00 +8°C° 0 mm 3 m/s 575 mmHg 64%
    13:00 +9°C° 0 mm 3 m/s 575 mmHg 62%
    14:00 +9°C° 0,1 mm 3 m/s 575 mmHg 64%
    15:00 +8°C° 0,1 mm 3 m/s 575 mmHg 66%
    16:00 +8°C° 0,1 mm 3 m/s 574 mmHg 67%
    17:00 +7°C° 0,3 mm 2 m/s 574 mmHg 74%
    18:00 +5°C° 0,3 mm 2 m/s 573 mmHg 81%
    19:00 +4°C° 0,3 mm 2 m/s 573 mmHg 87%
    20:00 +3°C° 0,1 mm 2 m/s 573 mmHg 89%
    21:00 +3°C° 0,1 mm 2 m/s 573 mmHg 91%
    22:00 +2°C° 0,1 mm 2 m/s 573 mmHg 92%
    23:00 +1°C° 0 mm 2 m/s 573 mmHg 93%

    Poimâine, 28 Aprilie, Sâmbătă

    Timp Temperatura Precipitaţii Vânt Presiune Umiditate
    00:00 +1°C° 0 mm 2 m/s 572 mmHg 93%
    01:00 +1°C° 0 mm 2 m/s 572 mmHg 93%
    02:00 -1°C° 0 mm 2 m/s 572 mmHg 92%
    03:00 -1°C° 0 mm 2 m/s 572 mmHg 92%
    04:00 -1°C° 0 mm 2 m/s 571 mmHg 91%
    05:00 +1°C° 0 mm 2 m/s 572 mmHg 88%
    06:00 +2°C° 0 mm 2 m/s 572 mmHg 84%
    07:00 +2°C° 0 mm 2 m/s 573 mmHg 81%
    08:00 +4°C° 0 mm 2 m/s 574 mmHg 73%
    09:00 +6°C° 0 mm 2 m/s 575 mmHg 66%
    10:00 +8°C° 0 mm 2 m/s 576 mmHg 59%
    11:00 +9°C° 0 mm 3 m/s 576 mmHg 56%
    12:00 +9°C° 0 mm 3 m/s 576 mmHg 53%
    13:00 +10°C° 0 mm 3 m/s 576 mmHg 50%
    14:00 +10°C° 0,2 mm 3 m/s 575 mmHg 52%
    15:00 +10°C° 0,2 mm 3 m/s 575 mmHg 53%
    16:00 +9°C° 0,2 mm 3 m/s 574 mmHg 55%
    17:00 +8°C° 0,3 mm 3 m/s 574 mmHg 63%
    18:00 +5°C° 0,3 mm 3 m/s 573 mmHg 70%
    19:00 +5°C° 0,3 mm 2 m/s 572 mmHg 78%
    20:00 +4°C° 0,1 mm 2 m/s 572 mmHg 81%
    21:00 +2°C° 0,1 mm 3 m/s 572 mmHg 84%
    22:00 +1°C° 0,1 mm 3 m/s 572 mmHg 87%
    23:00 +1°C° 0 mm 3 m/s 572 mmHg 88%

    29 Aprilie, Duminică

    Timp Temperatura Precipitaţii Vânt Presiune Umiditate
    00:00 +1°C° 0 mm 3 m/s 571 mmHg 88%
    01:00 +1°C° 0 mm 3 m/s 571 mmHg 88%
    02:00 0°C° 0 mm 3 m/s 571 mmHg 89%
    03:00 0°C° 0 mm 3 m/s 571 mmHg 89%
    04:00 0°C° 0 mm 3 m/s 571 mmHg 89%
    05:00 +1°C° 0 mm 3 m/s 571 mmHg 85%
    06:00 +2°C° 0 mm 3 m/s 571 mmHg 82%
    07:00 +2°C° 0 mm 3 m/s 572 mmHg 79%
    08:00 +4°C° 0 mm 3 m/s 572 mmHg 69%
    09:00 +7°C° 0 mm 3 m/s 573 mmHg 59%
    10:00 +9°C° 0 mm 3 m/s 574 mmHg 50%
    11:00 +10°C° 0 mm 3 m/s 574 mmHg 49%
    12:00 +11°C° 0 mm 4 m/s 574 mmHg 47%
    13:00 +12°C° 0 mm 4 m/s 574 mmHg 46%
    14:00 +11°C° 0 mm 4 m/s 573 mmHg 46%
    15:00 +11°C° 0 mm 4 m/s 573 mmHg 46%
    16:00 +11°C° 0 mm 4 m/s 572 mmHg 46%
    17:00 +8°C° 0 mm 4 m/s 571 mmHg 54%
    18:00 +6°C° 0 mm 4 m/s 570 mmHg 61%
    19:00 +5°C° 0 mm 4 m/s 569 mmHg 68%
    20:00 +4°C° 0,1 mm 4 m/s 569 mmHg 72%
    21:00 +3°C° 0,1 mm 4 m/s 569 mmHg 77%
    22:00 +1°C° 0,1 mm 4 m/s 568 mmHg 81%
    23:00 +1°C° 0,6 mm 4 m/s 568 mmHg 83%

    30 Aprilie, Luni

    Timp Temperatura Precipitaţii Vânt Presiune Umiditate
    00:00 +2°C° 0,6 mm 3 m/s 569 mmHg 86%
    01:00 +1°C° 0,6 mm 3 m/s 569 mmHg 88%
    02:00 +1°C° 2 mm 3 m/s 569 mmHg 91%
    03:00 0°C° 2 mm 3 m/s 569 mmHg 94%
    04:00 -1°C° 2 mm 3 m/s 569 mmHg 97%
    05:00 -1°C° 1,3 mm 3 m/s 569 mmHg 95%
    06:00 -2°C° 1,3 mm 2 m/s 569 mmHg 94%
    07:00 0°C° 1,3 mm 1 m/s 569 mmHg 92%
    08:00 +1°C° 0,1 mm 1 m/s 570 mmHg 85%
    09:00 +2°C° 0,1 mm 1 m/s 570 mmHg 79%
    10:00 +4°C° 0,1 mm 1 m/s 571 mmHg 72%
    11:00 +4°C° 0,1 mm 1 m/s 571 mmHg 71%
    12:00 +4°C° 0,1 mm 2 m/s 572 mmHg 70%
    13:00 +4°C° 0,1 mm 2 m/s 572 mmHg 69%
    14:00 +4°C° 0,3 mm 2 m/s 572 mmHg 70%
    15:00 +4°C° 0,3 mm 2 m/s 572 mmHg 71%
    16:00 +4°C° 0,3 mm 2 m/s 572 mmHg 73%
    17:00 +3°C° 0,3 mm 2 m/s 571 mmHg 78%
    18:00 +2°C° 0,3 mm 2 m/s 571 mmHg 83%
    19:00 +1°C° 0,3 mm 2 m/s 571 mmHg 89%
    20:00 +1°C° 0,1 mm 1 m/s 571 mmHg 91%
    21:00 +1°C° 0,1 mm 1 m/s 571 mmHg 93%
    22:00 0°C° 0,1 mm 1 m/s 571 mmHg 96%
    23:00 0°C° 0 mm 1 m/s 571 mmHg 95%

    1 Mai, Marţi

    Timp Temperatura Precipitaţii Vânt Presiune Umiditate
    00:00 -2°C° 0 mm 2 m/s 570 mmHg 94%
    01:00 -2°C° 0 mm 2 m/s 570 mmHg 93%
    02:00 -3°C° 0 mm 2 m/s 570 mmHg 93%
    03:00 -3°C° 0 mm 2 m/s 570 mmHg 93%
    04:00 -3°C° 0 mm 2 m/s 570 mmHg 92%
    05:00 -3°C° 0 mm 2 m/s 570 mmHg 89%
    06:00 -2°C° 0 mm 2 m/s 571 mmHg 86%
    07:00 -1°C° 0 mm 2 m/s 571 mmHg 84%
    08:00 +1°C° 0 mm 2 m/s 571 mmHg 75%
    09:00 +2°C° 0 mm 2 m/s 572 mmHg 67%
    10:00 +4°C° 0 mm 2 m/s 572 mmHg 59%
    11:00 +5°C° 0 mm 2 m/s 573 mmHg 57%
    12:00 +5°C° 0 mm 2 m/s 573 mmHg 54%
    13:00 +6°C° 0 mm 2 m/s 573 mmHg 52%
    14:00 +6°C° 0,1 mm 2 m/s 573 mmHg 55%
    15:00 +6°C° 0,1 mm 2 m/s 573 mmHg 58%
    16:00 +5°C° 0,1 mm 2 m/s 572 mmHg 61%
    17:00 +4°C° 0,1 mm 2 m/s 572 mmHg 69%
    18:00 +4°C° 0,1 mm 1 m/s 571 mmHg 77%
    19:00 +3°C° 0,1 mm 1 m/s 571 mmHg 84%
    20:00 +2°C° 0,2 mm 1 m/s 571 mmHg 87%
    21:00 +2°C° 0,2 mm 1 m/s 571 mmHg 89%
    22:00 +1°C° 0,2 mm 1 m/s 571 mmHg 92%
    23:00 +1°C° 0,1 mm 1 m/s 570 mmHg 92%
    Arată mai mult